Flag for China

Past Weather in Dalian, Liaoning, China — Yesterday and Last 2 Weeks

Now
73 °F

Passing clouds.


Feels Like: 76 °F
Forecast: 73 / 69 °F
Wind: 8 mph from Southwest

Location: Dalian Airport

Current Time: Jul 5, 2020 at 3:31:48 am

Latest Report: Jul 5, 2020 at 2:30 am


Visibility: N/A

Pressure: 29.62 "Hg

Humidity: 69%

Dew Point: 63 °F

Location of DalianLocation

Past Weather in Dalian — Graph

°F

Dalian Temperature Yesterday

Maximum temperature yesterday: 81 °F (at 10:00 am)
Minimum temperature yesterday: 66 °F (at 1:00 am)
Average temperature yesterday: 74 °F

High & Low Weather Summary for the Past Weeks

 TemperatureHumidityPressure
High90 °F (Jun 20, 11:30 am)100% (Jun 23, 7:00 pm)29.86 "Hg (Jun 23, 7:00 pm)
Low64 °F (Jun 23, 9:30 pm)40% (Jun 22, 3:00 pm)29.50 "Hg (Jun 30, 4:00 am)
Average74 °F74%29.69 "Hg
* Reported Jun 20 2:00 am — Jul 5 2:00 am, Dalian. Weather by CustomWeather, © 2020

Note: Actual official high and low records may vary slightly from our data, if they occured in-between our weather recording intervals... More about our weather records

Dalian Weather History for the Previous 24 Hours

Scroll right to see more
 ConditionsComfort  
Time TempWeatherWind HumidityBarometerVisibility
2:00 am
Sun, Jul 5
73 °FPassing clouds.8 mph69%29.62 "HgN/A
1:30 am73 °FPassing clouds.10 mph74%29.62 "HgN/A
1:00 am73 °FPassing clouds.8 mph74%29.62 "HgN/A
12:30 am72 °FPassing clouds.6 mph83%29.62 "HgN/A
12:00 am72 °FPassing clouds.6 mph83%29.65 "HgN/A
11:30 pm
Sat, Jul 4
72 °FPassing clouds.6 mph83%29.65 "HgN/A
11:00 pm72 °FPassing clouds.3 mph83%29.65 "HgN/A
10:30 pm72 °FPassing clouds.8 mph88%29.68 "HgN/A
10:00 pm72 °FPassing clouds.6 mph83%29.68 "HgN/A
9:30 pm72 °FPassing clouds.8 mph83%29.68 "HgN/A
9:00 pm73 °FPassing clouds.6 mph74%29.68 "HgN/A
8:00 pm73 °FClear.6 mph74%29.68 "Hg10 mi
7:30 pm75 °FClear.3 mph69%29.65 "Hg10 mi
7:00 pm77 °FPassing clouds.6 mph61%29.68 "HgN/A
6:30 pm77 °FPassing clouds.6 mph61%29.68 "HgN/A
6:00 pm79 °FScattered clouds.8 mph58%29.65 "HgN/A
5:30 pm79 °FScattered clouds.8 mph58%29.65 "HgN/A
5:00 pm79 °FScattered clouds.8 mph58%29.65 "HgN/A
4:30 pm81 °FScattered clouds.10 mph58%29.68 "HgN/A
4:00 pm79 °FScattered clouds.10 mph61%29.68 "HgN/A
3:30 pm79 °FPartly sunny.10 mph61%29.68 "HgN/A
3:00 pm79 °FPartly sunny.6 mph65%29.68 "HgN/A
2:30 pm77 °FPartly sunny.8 mph74%29.71 "HgN/A
2:00 pm77 °FPartly sunny.6 mph74%29.71 "HgN/A
1:30 pm77 °FPartly sunny.6 mph74%29.71 "HgN/A
1:00 pm77 °FLight rain. Partly sunny.6 mph69%29.71 "HgN/A
12:30 pm79 °FPartly sunny.6 mph70%29.74 "HgN/A
12:00 pm79 °FPartly sunny.6 mph65%29.74 "HgN/A
11:30 am79 °FPartly sunny.8 mph65%29.74 "HgN/A
11:00 am81 °FPartly sunny.3 mph62%29.74 "HgN/A
10:30 am79 °FPassing clouds.3 mph61%29.77 "HgN/A
10:00 am81 °FSunny.1 mph58%29.77 "Hg10 mi
9:30 am79 °FPassing clouds.6 mph61%29.77 "HgN/A
9:00 am77 °FSunny.8 mph61%29.77 "Hg10 mi
8:30 am77 °FPassing clouds.6 mph61%29.77 "HgN/A
8:00 am75 °FPassing clouds.6 mph65%29.77 "HgN/A
7:30 am73 °FPassing clouds.6 mph65%29.77 "HgN/A
7:00 am73 °FPassing clouds.3 mph65%29.77 "HgN/A
6:30 am72 °FSunny.1 mph69%29.77 "Hg10 mi
6:00 am70 °FSunny.1 mph78%29.77 "Hg10 mi
5:30 am68 °FSunny.3 mph83%29.77 "Hg10 mi
5:00 am68 °FSunny.1 mph83%29.77 "Hg10 mi
4:30 am66 °FClear.3 mph83%29.77 "Hg10 mi
4:00 am66 °FClear.3 mph88%29.80 "Hg10 mi
3:30 am66 °FClear.1 mph83%29.77 "Hg10 mi
3:00 am66 °FClear.1 mph83%29.80 "Hg10 mi
Weather by CustomWeather, © 2020

See weather overview